^^
Station Historical Data
Daily Summary for March 25, 2020 Units:  English    Metric   Both
« Previous Day
Next Day »
Daily Weekly Monthly Yearly Custom
  High: Low: Average:
Temperature: 38.4 °F 26.3 °F 30.6 °F
Dew Point: 27.6 °F 20.5 °F 22.5 °F
Humidity: 81% 55% 72%
Wind Speed: 19.0mph 0.0mph 7.1mph
Wind Gust: 25.0mph - -
Wind- - SSW
Pressure: 29.90 in 29.76 in -
Precipitation: 0.00 in    
Historical Graphs
 
 
Tabular Data for March 25, 2020
Time Temperature Dew Point Pressure Wind Wind Speed Wind Gust Humidity Rainfall Rate (Hourly) solar Conditions
00:00 36.1 °F 27.6 °F 29.76 in North 13.0 mph 23.0 mph 71% 0.00 in 0.00 W/m2
00:05 35.1 °F 27.3 °F 29.77 in NNW 14.0 mph 23.0 mph 73% 0.00 in 0.00 W/m2
00:10 34.5 °F 27.1 °F 29.77 in NNW 17.0 mph 23.0 mph 74% 0.00 in 0.00 W/m2
00:15 34.0 °F 26.9 °F 29.77 in NNW 13.0 mph 23.0 mph 75% 0.00 in 0.00 W/m2
00:20 33.6 °F 26.5 °F 29.77 in NNW 8.0 mph 20.0 mph 75% 0.00 in 0.00 W/m2
00:25 33.2 °F 26.5 °F 29.77 in NNW 11.0 mph 20.0 mph 76% 0.00 in 0.00 W/m2
00:30 32.9 °F 26.5 °F 29.77 in NNW 9.0 mph 14.0 mph 77% 0.00 in 0.00 W/m2
00:35 32.6 °F 26.2 °F 29.77 in North 8.0 mph 14.0 mph 77% 0.00 in 0.00 W/m2
00:40 32.1 °F 26.0 °F 29.77 in NNW 11.0 mph 14.0 mph 78% 0.00 in 0.00 W/m2
00:45 31.9 °F 25.8 °F 29.77 in NNW 8.0 mph 12.0 mph 78% 0.00 in 0.00 W/m2
00:50 31.7 °F 25.6 °F 29.77 in North 13.0 mph 18.0 mph 78% 0.00 in 0.00 W/m2
00:55 31.6 °F 25.5 °F 29.77 in NNW 12.0 mph 18.0 mph 78% 0.00 in 0.00 W/m2
01:00 31.5 °F 25.4 °F 29.77 in NNW 8.0 mph 18.0 mph 78% 0.00 in 0.00 W/m2
01:05 31.8 °F 25.4 °F 29.78 in NW 12.0 mph 18.0 mph 77% 0.00 in 0.00 W/m2
01:10 31.7 °F 25.3 °F 29.78 in NW 9.0 mph 18.0 mph 77% 0.00 in 0.00 W/m2
01:15 31.5 °F 25.1 °F 29.78 in NNW 11.0 mph 17.0 mph 77% 0.00 in 0.00 W/m2
01:20 31.5 °F 25.1 °F 29.79 in NNW 11.0 mph 17.0 mph 77% 0.00 in 0.00 W/m2
01:25 31.4 °F 25.0 °F 29.79 in NW 8.0 mph 15.0 mph 77% 0.00 in 0.00 W/m2
01:30 31.3 °F 25.2 °F 29.79 in NW 8.0 mph 15.0 mph 78% 0.00 in 0.00 W/m2
01:35 31.4 °F 25.0 °F 29.80 in NNW 12.0 mph 18.0 mph 77% 0.00 in 0.00 W/m2
01:40 31.2 °F 24.8 °F 29.79 in NW 17.0 mph 18.0 mph 77% 0.00 in 0.00 W/m2
01:45 31.1 °F 24.7 °F 29.80 in NW 8.0 mph 18.0 mph 77% 0.00 in 0.00 W/m2
01:50 31.0 °F 24.6 °F 29.81 in NW 11.0 mph 18.0 mph 77% 0.00 in 0.00 W/m2
01:55 30.8 °F 24.4 °F 29.81 in WNW 11.0 mph 18.0 mph 77% 0.00 in 0.00 W/m2
02:00 30.7 °F 24.3 °F 29.81 in NW 13.0 mph 19.0 mph 77% 0.00 in 0.00 W/m2
02:05 30.5 °F 24.1 °F 29.82 in WNW 10.0 mph 19.0 mph 77% 0.00 in 0.00 W/m2
02:10 30.4 °F 24.1 °F 29.81 in NW 16.0 mph 20.0 mph 77% 0.00 in 0.00 W/m2
02:15 30.2 °F 24.2 °F 29.81 in WNW 14.0 mph 20.0 mph 78% 0.00 in 0.00 W/m2
02:20 30.1 °F 24.1 °F 29.81 in NW 11.0 mph 19.0 mph 78% 0.00 in 0.00 W/m2
02:25 30.0 °F 24.0 °F 29.82 in NW 8.0 mph 19.0 mph 78% 0.00 in 0.00 W/m2
02:30 30.1 °F 24.1 °F 29.82 in NW 8.0 mph 18.0 mph 78% 0.00 in 0.00 W/m2
02:35 30.1 °F 24.1 °F 29.82 in NW 10.0 mph 18.0 mph 78% 0.00 in 0.00 W/m2
02:40 30.1 °F 24.1 °F 29.82 in WNW 9.0 mph 18.0 mph 78% 0.00 in 0.00 W/m2
02:45 30.1 °F 24.1 °F 29.82 in NW 13.0 mph 21.0 mph 78% 0.00 in 0.00 W/m2
02:50 30.0 °F 23.7 °F 29.82 in NW 19.0 mph 22.0 mph 77% 0.00 in 0.00 W/m2
02:55 29.8 °F 23.5 °F 29.81 in NW 14.0 mph 22.0 mph 77% 0.00 in 0.00 W/m2
03:00 29.5 °F 23.2 °F 29.82 in NNW 17.0 mph 25.0 mph 77% 0.00 in 0.00 W/m2
03:05 29.3 °F 23.0 °F 29.82 in NW 9.0 mph 25.0 mph 77% 0.00 in 0.00 W/m2
03:10 29.2 °F 22.9 °F 29.83 in NNW 17.0 mph 20.0 mph 77% 0.00 in 0.00 W/m2
03:15 29.1 °F 22.8 °F 29.82 in NW 13.0 mph 20.0 mph 77% 0.00 in 0.00 W/m2
03:20 29.1 °F 22.8 °F 29.82 in WNW 16.0 mph 20.0 mph 77% 0.00 in 0.00 W/m2
03:25 29.1 °F 23.1 °F 29.82 in WNW 10.0 mph 20.0 mph 78% 0.00 in 0.00 W/m2
03:30 29.1 °F 23.1 °F 29.83 in NW 11.0 mph 20.0 mph 78% 0.00 in 0.00 W/m2
03:35 29.1 °F 23.1 °F 29.83 in WNW 12.0 mph 17.0 mph 78% 0.00 in 0.00 W/m2
03:40 29.1 °F 23.1 °F 29.83 in WNW 12.0 mph 17.0 mph 78% 0.00 in 0.00 W/m2
03:45 29.1 °F 23.1 °F 29.83 in NW 12.0 mph 17.0 mph 78% 0.00 in 0.00 W/m2
03:50 29.1 °F 23.1 °F 29.83 in NW 10.0 mph 17.0 mph 78% 0.00 in 0.00 W/m2
03:55 29.0 °F 23.0 °F 29.82 in NNW 13.0 mph 17.0 mph 78% 0.00 in 0.00 W/m2
04:00 29.0 °F 23.0 °F 29.82 in NNW 16.0 mph 18.0 mph 78% 0.00 in 0.00 W/m2
04:05 28.7 °F 22.7 °F 29.82 in NW 15.0 mph 18.0 mph 78% 0.00 in 0.00 W/m2
04:10 28.7 °F 22.7 °F 29.82 in NNW 13.0 mph 19.0 mph 78% 0.00 in 0.00 W/m2
04:15 28.6 °F 22.9 °F 29.82 in NW 12.0 mph 19.0 mph 79% 0.00 in 0.00 W/m2
04:20 28.6 °F 22.9 °F 29.82 in NW 11.0 mph 19.0 mph 79% 0.00 in 0.00 W/m2
04:25 28.6 °F 22.9 °F 29.83 in NW 13.0 mph 19.0 mph 79% 0.00 in 0.00 W/m2
04:30 28.5 °F 22.5 °F 29.83 in NNW 13.0 mph 18.0 mph 78% 0.00 in 0.00 W/m2
04:35 28.2 °F 22.2 °F 29.83 in NNW 8.0 mph 18.0 mph 78% 0.00 in 0.00 W/m2
04:40 28.1 °F 22.1 °F 29.82 in NNW 13.0 mph 18.0 mph 78% 0.00 in 0.00 W/m2
04:45 28.0 °F 22.0 °F 29.82 in NNW 15.0 mph 18.0 mph 78% 0.00 in 0.00 W/m2
04:50 27.9 °F 21.9 °F 29.83 in NNW 9.0 mph 18.0 mph 78% 0.00 in 0.00 W/m2
04:55 27.9 °F 21.9 °F 29.83 in NNW 13.0 mph 18.0 mph 78% 0.00 in 0.00 W/m2
05:00 27.8 °F 21.8 °F 29.82 in NNW 9.0 mph 18.0 mph 78% 0.00 in 0.00 W/m2
05:05 27.8 °F 21.8 °F 29.82 in NW 11.0 mph 16.0 mph 78% 0.00 in 0.00 W/m2
05:10 27.8 °F 22.1 °F 29.82 in NNW 11.0 mph 17.0 mph 79% 0.00 in 0.00 W/m2
05:15 27.8 °F 22.1 °F 29.81 in NNW 13.0 mph 17.0 mph 79% 0.00 in 0.00 W/m2
05:20 27.8 °F 22.1 °F 29.81 in NNW 9.0 mph 17.0 mph 79% 0.00 in 0.00 W/m2
05:25 27.7 °F 22.0 °F 29.81 in North 13.0 mph 16.0 mph 79% 0.00 in 0.00 W/m2
05:30 27.6 °F 21.6 °F 29.82 in NW 10.0 mph 16.0 mph 78% 0.00 in 0.00 W/m2
05:35 27.6 °F 21.9 °F 29.82 in NW 12.0 mph 16.0 mph 79% 0.00 in 0.00 W/m2
05:40 27.5 °F 21.8 °F 29.83 in NNW 4.0 mph 16.0 mph 79% 0.00 in 0.00 W/m2
05:45 27.4 °F 21.7 °F 29.83 in NNW 5.0 mph 16.0 mph 79% 0.00 in 0.00 W/m2
05:50 27.5 °F 21.5 °F 29.83 in North 8.0 mph 14.0 mph 78% 0.00 in 0.00 W/m2
05:55 27.4 °F 21.4 °F 29.82 in NNW 11.0 mph 14.0 mph 78% 0.00 in 0.00 W/m2
06:00 27.4 °F 21.4 °F 29.82 in NNW 13.0 mph 14.0 mph 78% 0.00 in 0.00 W/m2
06:05 27.4 °F 21.1 °F 29.82 in NNW 12.0 mph 17.0 mph 77% 0.00 in 0.00 W/m2
06:10 27.3 °F 21.0 °F 29.83 in North 5.0 mph 18.0 mph 77% 0.00 in 0.00 W/m2
06:15 27.3 °F 21.3 °F 29.83 in NNW 4.0 mph 18.0 mph 78% 0.00 in 0.00 W/m2
06:20 27.4 °F 21.4 °F 29.84 in NNW 9.0 mph 15.0 mph 78% 0.00 in 0.00 W/m2
06:25 27.4 °F 21.4 °F 29.83 in NNW 9.0 mph 15.0 mph 78% 0.00 in 0.00 W/m2
06:30 27.4 °F 21.4 °F 29.84 in NNW 11.0 mph 14.0 mph 78% 0.00 in 0.00 W/m2
06:35 27.4 °F 21.4 °F 29.84 in NW 8.0 mph 14.0 mph 78% 0.00 in 0.00 W/m2
06:40 27.3 °F 21.3 °F 29.84 in NNW 11.0 mph 14.0 mph 78% 0.00 in 0.00 W/m2
06:45 27.3 °F 21.6 °F 29.84 in North 10.0 mph 14.0 mph 79% 0.00 in 0.00 W/m2
06:50 27.2 °F 21.5 °F 29.84 in North 11.0 mph 15.0 mph 79% 0.00 in 0.00 W/m2
06:55 27.1 °F 21.5 °F 29.84 in North 12.0 mph 18.0 mph 79% 0.00 in 0.00 W/m2
07:00 27.0 °F 21.4 °F 29.83 in North 10.0 mph 18.0 mph 79% 0.00 in 0.00 W/m2
07:05 26.9 °F 21.3 °F 29.83 in NNW 10.0 mph 16.0 mph 79% 0.00 in 0.00 W/m2
07:10 26.9 °F 21.6 °F 29.83 in North 12.0 mph 16.0 mph 80% 0.00 in 0.00 W/m2
07:15 26.8 °F 21.5 °F 29.83 in NNW 10.0 mph 16.0 mph 80% 0.00 in 0.00 W/m2
07:20 26.8 °F 21.5 °F 29.83 in NNW 8.0 mph 15.0 mph 80% 0.00 in 0.00 W/m2
07:25 26.8 °F 21.5 °F 29.84 in NNW 6.0 mph 16.0 mph 80% 0.00 in 0.00 W/m2
07:30 26.8 °F 21.5 °F 29.83 in NNE 15.0 mph 17.0 mph 80% 0.00 in 0.00 W/m2
07:35 26.6 °F 21.0 °F 29.84 in NNW 11.0 mph 18.0 mph 79% 0.00 in 0.00 W/m2
07:40 26.5 °F 20.9 °F 29.84 in North 14.0 mph 18.0 mph 79% 0.00 in 0.00 W/m2
07:45 26.4 °F 20.8 °F 29.84 in North 9.0 mph 18.0 mph 79% 0.00 in 0.00 W/m2
07:50 26.3 °F 20.7 °F 29.85 in North 10.0 mph 18.0 mph 79% 0.00 in 0.00 W/m2
07:55 26.4 °F 20.8 °F 29.85 in NNW 11.0 mph 13.0 mph 79% 0.00 in 0.00 W/m2
08:00 26.4 °F 20.8 °F 29.84 in NNW 14.0 mph 16.0 mph 79% 0.00 in 0.00 W/m2
08:05 26.3 °F 20.7 °F 29.85 in NNW 12.0 mph 17.0 mph 79% 0.00 in 0.00 W/m2
08:10 26.3 °F 20.7 °F 29.85 in NNW 8.0 mph 17.0 mph 79% 0.00 in 0.00 W/m2
08:15 26.3 °F 20.7 °F 29.85 in NW 11.0 mph 17.0 mph 79% 0.00 in 0.00 W/m2
08:20 26.4 °F 20.8 °F 29.85 in North 11.0 mph 16.0 mph 79% 0.00 in 0.00 W/m2
08:25 26.3 °F 20.7 °F 29.85 in NNW 13.0 mph 17.0 mph 79% 0.00 in 0.00 W/m2
08:30 26.4 °F 20.8 °F 29.85 in North 9.0 mph 17.0 mph 79% 0.00 in 0.00 W/m2
08:35 26.4 °F 20.8 °F 29.84 in North 9.0 mph 17.0 mph 79% 0.00 in 0.00 W/m2
08:40 26.4 °F 20.8 °F 29.85 in North 8.0 mph 17.0 mph 79% 0.00 in 0.00 W/m2
08:45 26.5 °F 20.9 °F 29.85 in North 11.0 mph 15.0 mph 79% 0.00 in 5.00 W/m2
08:50 26.5 °F 21.2 °F 29.85 in North 6.0 mph 15.0 mph 80% 0.00 in 5.00 W/m2
08:55 26.5 °F 21.2 °F 29.84 in North 11.0 mph 15.0 mph 80% 0.00 in 7.00 W/m2
09:00 26.6 °F 21.3 °F 29.85 in NNW 9.0 mph 15.0 mph 80% 0.00 in 7.00 W/m2
09:05 26.7 °F 21.4 °F 29.85 in North 6.0 mph 14.0 mph 80% 0.00 in 7.00 W/m2
09:10 26.8 °F 21.8 °F 29.85 in NW 9.0 mph 14.0 mph 81% 0.00 in 9.00 W/m2
09:15 26.8 °F 21.8 °F 29.86 in NNW 14.0 mph 15.0 mph 81% 0.00 in 12.00 W/m2
09:20 26.8 °F 21.8 °F 29.86 in North 12.0 mph 16.0 mph 81% 0.00 in 14.00 W/m2
09:25 26.9 °F 21.8 °F 29.86 in North 12.0 mph 16.0 mph 81% 0.00 in 19.00 W/m2
09:30 26.9 °F 21.6 °F 29.86 in North 6.0 mph 16.0 mph 80% 0.00 in 23.00 W/m2
09:35 27.0 °F 21.9 °F 29.86 in NNW 11.0 mph 15.0 mph 81% 0.00 in 21.00 W/m2
09:40 27.0 °F 21.9 °F 29.86 in NNW 8.0 mph 15.0 mph 81% 0.00 in 25.00 W/m2
09:45 26.9 °F 21.6 °F 29.86 in North 8.0 mph 15.0 mph 80% 0.00 in 26.00 W/m2
09:50 26.9 °F 21.6 °F 29.86 in North 5.0 mph 15.0 mph 80% 0.00 in 28.00 W/m2
09:55 26.9 °F 21.6 °F 29.86 in North 11.0 mph 15.0 mph 80% 0.00 in 35.00 W/m2
10:00 26.8 °F 21.5 °F 29.85 in NNE 9.0 mph 18.0 mph 80% 0.00 in 35.00 W/m2
10:05 26.7 °F 21.1 °F 29.86 in North 13.0 mph 18.0 mph 79% 0.00 in 35.00 W/m2
10:10 26.5 °F 20.9 °F 29.85 in North 9.0 mph 18.0 mph 79% 0.00 in 26.00 W/m2
10:15 26.4 °F 20.8 °F 29.86 in North 11.0 mph 18.0 mph 79% 0.00 in 28.00 W/m2
10:20 26.3 °F 20.7 °F 29.87 in NNW 8.0 mph 15.0 mph 79% 0.00 in 42.00 W/m2
10:25 26.3 °F 20.7 °F 29.87 in North 12.0 mph 15.0 mph 79% 0.00 in 44.00 W/m2
10:30 26.3 °F 20.7 °F 29.87 in NW 9.0 mph 13.0 mph 79% 0.00 in 63.00 W/m2
10:35 26.3 °F 20.7 °F 29.87 in North 11.0 mph 13.0 mph 79% 0.00 in 95.00 W/m2
10:40 26.6 °F 21.0 °F 29.87 in NNE 8.0 mph 13.0 mph 79% 0.00 in 114.00 W/m2
10:45 26.8 °F 21.2 °F 29.88 in NNE 9.0 mph 14.0 mph 79% 0.00 in 109.00 W/m2
10:50 26.8 °F 20.9 °F 29.88 in North 9.0 mph 14.0 mph 78% 0.00 in 84.00 W/m2
10:55 26.7 °F 20.8 °F 29.89 in NNW 6.0 mph 13.0 mph 78% 0.00 in 104.00 W/m2
11:00 26.7 °F 20.8 °F 29.88 in North 9.0 mph 15.0 mph 78% 0.00 in 114.00 W/m2
11:05 26.9 °F 21.0 °F 29.89 in NNW 9.0 mph 15.0 mph 78% 0.00 in 120.00 W/m2
11:10 27.0 °F 21.1 °F 29.89 in NNE 9.0 mph 12.0 mph 78% 0.00 in 141.00 W/m2
11:15 27.2 °F 20.9 °F 29.88 in NNE 7.0 mph 12.0 mph 77% 0.00 in 174.00 W/m2
11:20 27.5 °F 21.2 °F 29.88 in North 9.0 mph 13.0 mph 77% 0.00 in 146.00 W/m2
11:25 27.5 °F 20.9 °F 29.88 in North 9.0 mph 13.0 mph 76% 0.00 in 120.00 W/m2
11:30 27.6 °F 21.3 °F 29.88 in NNE 8.0 mph 13.0 mph 77% 0.00 in 200.00 W/m2
11:35 27.9 °F 21.3 °F 29.88 in NE 10.0 mph 13.0 mph 76% 0.00 in 165.00 W/m2
11:40 27.9 °F 21.3 °F 29.89 in NNE 8.0 mph 13.0 mph 76% 0.00 in 156.00 W/m2
11:45 27.9 °F 21.0 °F 29.89 in NNW 9.0 mph 13.0 mph 75% 0.00 in 174.00 W/m2
11:50 27.9 °F 21.3 °F 29.89 in North 6.0 mph 12.0 mph 76% 0.00 in 176.00 W/m2
11:55 27.8 °F 20.9 °F 29.89 in North 6.0 mph 12.0 mph 75% 0.00 in 209.00 W/m2
12:00 28.0 °F 21.4 °F 29.90 in North 9.0 mph 13.0 mph 76% 0.00 in 209.00 W/m2
12:05 28.3 °F 21.7 °F 29.89 in North 4.0 mph 13.0 mph 76% 0.00 in 197.00 W/m2
12:10 28.5 °F 21.6 °F 29.89 in NW 10.0 mph 14.0 mph 75% 0.00 in 243.00 W/m2
12:15 28.7 °F 21.5 °F 29.89 in NE 3.0 mph 14.0 mph 74% 0.00 in 232.00 W/m2
12:20 28.8 °F 21.6 °F 29.89 in NNE 10.0 mph 14.0 mph 74% 0.00 in 241.00 W/m2
12:25 29.2 °F 21.9 °F 29.89 in NE 5.0 mph 14.0 mph 74% 0.00 in 230.00 W/m2
12:30 29.0 °F 21.4 °F 29.89 in NNE 7.0 mph 12.0 mph 73% 0.00 in 185.00 W/m2
12:35 28.9 °F 21.3 °F 29.89 in NE 7.0 mph 11.0 mph 73% 0.00 in 181.00 W/m2
12:40 28.8 °F 21.6 °F 29.89 in North 6.0 mph 13.0 mph 74% 0.00 in 190.00 W/m2
12:45 28.7 °F 21.5 °F 29.89 in NNE 8.0 mph 13.0 mph 74% 0.00 in 190.00 W/m2
12:50 28.7 °F 21.8 °F 29.89 in NNE 9.0 mph 13.0 mph 75% 0.00 in 174.00 W/m2
12:55 28.9 °F 22.0 °F 29.89 in NNE 9.0 mph 13.0 mph 75% 0.00 in 192.00 W/m2
13:00 29.1 °F 21.8 °F 29.89 in North 9.0 mph 13.0 mph 74% 0.00 in 207.00 W/m2
13:05 29.3 °F 22.0 °F 29.89 in NE 11.0 mph 12.0 mph 74% 0.00 in 230.00 W/m2
13:10 29.5 °F 22.2 °F 29.89 in North 8.0 mph 12.0 mph 74% 0.00 in 229.00 W/m2
13:15 29.6 °F 22.0 °F 29.89 in NNE 5.0 mph 13.0 mph 73% 0.00 in 220.00 W/m2
13:20 29.6 °F 22.3 °F 29.89 in NNE 9.0 mph 13.0 mph 74% 0.00 in 218.00 W/m2
13:25 29.6 °F 21.7 °F 29.88 in NE 7.0 mph 11.0 mph 72% 0.00 in 246.00 W/m2
13:30 29.3 °F 21.4 °F 29.88 in ENE 1.0 mph 11.0 mph 72% 0.00 in 264.00 W/m2
13:35 29.4 °F 22.1 °F 29.88 in NNE 6.0 mph 9.0 mph 74% 0.00 in 214.00 W/m2
13:40 29.7 °F 22.1 °F 29.88 in NNE 7.0 mph 10.0 mph 73% 0.00 in 236.00 W/m2
13:45 30.0 °F 22.4 °F 29.88 in NNE 6.0 mph 11.0 mph 73% 0.00 in 225.00 W/m2
13:50 30.3 °F 22.7 °F 29.87 in NE 4.0 mph 11.0 mph 73% 0.00 in 276.00 W/m2
13:55 30.5 °F 22.2 °F 29.87 in NE 4.0 mph 11.0 mph 71% 0.00 in 311.00 W/m2
14:00 31.0 °F 22.7 °F 29.86 in NE 5.0 mph 13.0 mph 71% 0.00 in 408.00 W/m2
14:05 31.4 °F 22.7 °F 29.86 in NE 4.0 mph 13.0 mph 70% 0.00 in 374.00 W/m2
14:10 31.7 °F 22.7 °F 29.87 in NE 5.0 mph 12.0 mph 69% 0.00 in 413.00 W/m2
14:15 31.9 °F 23.2 °F 29.87 in NE 6.0 mph 12.0 mph 70% 0.00 in 330.00 W/m2
14:20 31.9 °F 22.9 °F 29.87 in NE 10.0 mph 11.0 mph 69% 0.00 in 323.00 W/m2
14:25 31.9 °F 22.5 °F 29.87 in NE 5.0 mph 11.0 mph 68% 0.00 in 343.00 W/m2
14:30 32.1 °F 23.1 °F 29.87 in ENE 4.0 mph 11.0 mph 69% 0.00 in 350.00 W/m2
14:35 32.6 °F 23.2 °F 29.86 in NE 10.0 mph 11.0 mph 68% 0.00 in 359.00 W/m2
14:40 32.2 °F 22.1 °F 29.87 in ENE 4.0 mph 11.0 mph 66% 0.00 in 374.00 W/m2
14:45 31.8 °F 22.4 °F 29.87 in ENE 5.0 mph 10.0 mph 68% 0.00 in 283.00 W/m2
14:50 31.9 °F 22.5 °F 29.88 in NE 3.0 mph 10.0 mph 68% 0.00 in 308.00 W/m2
14:55 32.4 °F 22.7 °F 29.88 in East 7.0 mph 10.0 mph 67% 0.00 in 415.00 W/m2
15:00 32.8 °F 23.4 °F 29.88 in NNE 2.0 mph 10.0 mph 68% 0.00 in 355.00 W/m2
15:05 32.9 °F 22.8 °F 29.88 in NNW 1.0 mph 10.0 mph 66% 0.00 in 327.00 W/m2
15:10 32.7 °F 22.9 °F 29.88 in North 4.0 mph 10.0 mph 67% 0.00 in 287.00 W/m2
15:15 32.8 °F 22.3 °F 29.88 in NE 3.0 mph 8.0 mph 65% 0.00 in 334.00 W/m2
15:20 32.9 °F 22.8 °F 29.88 in NE 5.0 mph 8.0 mph 66% 0.00 in 336.00 W/m2
15:25 33.3 °F 22.8 °F 29.88 in North 4.0 mph 9.0 mph 65% 0.00 in 362.00 W/m2
15:30 33.6 °F 23.1 °F 29.88 in South 2.0 mph 9.0 mph 65% 0.00 in 355.00 W/m2
15:35 33.1 °F 22.2 °F 29.88 in SSW 2.0 mph 8.0 mph 64% 0.00 in 292.00 W/m2
15:40 33.2 °F 22.3 °F 29.88 in Calm   8.0 mph 64% 0.00 in 262.00 W/m2
15:45 33.3 °F 22.4 °F 29.88 in ENE 2.0 mph 8.0 mph 64% 0.00 in 239.00 W/m2
15:50 33.5 °F 22.6 °F 29.88 in ENE 4.0 mph 9.0 mph 64% 0.00 in 241.00 W/m2
15:55 33.4 °F 22.5 °F 29.88 in SE 3.0 mph 9.0 mph 64% 0.00 in 237.00 W/m2
16:00 33.3 °F 22.4 °F 29.88 in South 3.0 mph 8.0 mph 64% 0.00 in 246.00 W/m2
16:05 33.4 °F 22.9 °F 29.88 in SSE 4.0 mph 8.0 mph 65% 0.00 in 276.00 W/m2
16:10 33.5 °F 22.6 °F 29.88 in SE 4.0 mph 8.0 mph 64% 0.00 in 299.00 W/m2
16:15 33.4 °F 22.9 °F 29.88 in SE 1.0 mph 8.0 mph 65% 0.00 in 288.00 W/m2
16:20 33.7 °F 23.2 °F 29.88 in SSW 3.0 mph 7.0 mph 65% 0.00 in 311.00 W/m2
16:25 33.9 °F 23.0 °F 29.88 in SE 2.0 mph 7.0 mph 64% 0.00 in 302.00 W/m2
16:30 34.0 °F 22.7 °F 29.88 in SE 2.0 mph 7.0 mph 63% 0.00 in 308.00 W/m2
16:35 34.0 °F 22.7 °F 29.87 in SE 2.0 mph 4.0 mph 63% 0.00 in 508.00 W/m2
16:40 34.4 °F 22.7 °F 29.87 in SE 2.0 mph 4.0 mph 62% 0.00 in 635.00 W/m2
16:45 34.9 °F 23.6 °F 29.87 in SE 2.0 mph 4.0 mph 63% 0.00 in 691.00 W/m2
16:50 35.4 °F 23.7 °F 29.87 in SE 2.0 mph 4.0 mph 62% 0.00 in 703.00 W/m2
16:55 35.8 °F 23.3 °F 29.87 in SE 2.0 mph 4.0 mph 60% 0.00 in 427.00 W/m2
17:00 35.6 °F 23.1 °F 29.87 in SE 2.0 mph 4.0 mph 60% 0.00 in 302.00 W/m2
17:05 35.5 °F 23.4 °F 29.87 in SE 2.0 mph 4.0 mph 61% 0.00 in 489.00 W/m2
17:10 36.0 °F 23.8 °F 29.87 in SE 2.0 mph 4.0 mph 61% 0.00 in 387.00 W/m2
17:15 36.1 °F 23.5 °F 29.87 in SE 2.0 mph 4.0 mph 60% 0.00 in 394.00 W/m2
17:20 36.3 °F 23.7 °F 29.87 in SE 2.0 mph 4.0 mph 60% 0.00 in 466.00 W/m2
17:25 36.5 °F 23.5 °F 29.86 in SE 2.0 mph 4.0 mph 59% 0.00 in 452.00 W/m2
17:30 35.9 °F 23.0 °F 29.86 in SE 2.0 mph 4.0 mph 59% 0.00 in 413.00 W/m2
17:35 35.7 °F 23.2 °F 29.86 in SE 2.0 mph 4.0 mph 60% 0.00 in 357.00 W/m2
17:40 36.0 °F 23.4 °F 29.86 in SE 2.0 mph 4.0 mph 60% 0.00 in 373.00 W/m2
17:45 36.1 °F 23.1 °F 29.86 in SE 2.0 mph 4.0 mph 59% 0.00 in 418.00 W/m2
17:50 36.6 °F 24.0 °F 29.86 in SE 2.0 mph 4.0 mph 60% 0.00 in 434.00 W/m2
17:55 37.3 °F 24.3 °F 29.86 in SE 2.0 mph 4.0 mph 59% 0.00 in 497.00 W/m2
18:00 37.3 °F 23.9 °F 29.86 in SE 2.0 mph 4.0 mph 58% 0.00 in 378.00 W/m2
18:05 37.1 °F 23.3 °F 29.86 in SE 2.0 mph 4.0 mph 57% 0.00 in 292.00 W/m2
18:10 37.3 °F 24.3 °F 29.86 in SE 2.0 mph 4.0 mph 59% 0.00 in 512.00 W/m2
18:15 37.5 °F 24.5 °F 29.86 in SE 2.0 mph 4.0 mph 59% 0.00 in 394.00 W/m2
18:20 37.4 °F 23.5 °F 29.86 in SE 2.0 mph 4.0 mph 57% 0.00 in 478.00 W/m2
18:25 37.9 °F 24.0 °F 29.86 in SE 2.0 mph 4.0 mph 57% 0.00 in 468.00 W/m2
18:30 38.4 °F 23.6 °F 29.86 in SE 2.0 mph 4.0 mph 55% 0.00 in 418.00 W/m2
18:35 38.0 °F 23.7 °F 29.85 in SE 2.0 mph 4.0 mph 56% 0.00 in 378.00 W/m2
18:40 37.7 °F 23.8 °F 29.86 in SE 2.0 mph 4.0 mph 57% 0.00 in 374.00 W/m2
18:45 37.7 °F 23.8 °F 29.86 in SE 2.0 mph 4.0 mph 57% 0.00 in 390.00 W/m2
18:50 37.6 °F 23.7 °F 29.86 in SE 2.0 mph 4.0 mph 57% 0.00 in 237.00 W/m2
18:55 37.6 °F 23.7 °F 29.85 in SE 2.0 mph 4.0 mph 57% 0.00 in 359.00 W/m2
19:00 37.7 °F 23.8 °F 29.85 in SE 2.0 mph 4.0 mph 57% 0.00 in 357.00 W/m2
19:05 37.8 °F 23.5 °F 29.85 in SE 2.0 mph 4.0 mph 56% 0.00 in 278.00 W/m2
19:10 37.8 °F 23.5 °F 29.85 in SE 2.0 mph 8.0 mph 56% 0.00 in 285.00 W/m2
19:15 37.8 °F 23.9 °F 29.86 in ESE 3.0 mph 8.0 mph 57% 0.00 in 279.00 W/m2
19:20 37.8 °F 23.5 °F 29.86 in South 4.0 mph 9.0 mph 56% 0.00 in 262.00 W/m2
19:25 37.8 °F 23.5 °F 29.86 in SSE 4.0 mph 9.0 mph 56% 0.00 in 267.00 W/m2
19:30 37.7 °F 23.0 °F 29.86 in SSE 4.0 mph 8.0 mph 55% 0.00 in 229.00 W/m2
19:35 37.8 °F 23.5 °F 29.86 in South 6.0 mph 8.0 mph 56% 0.00 in 206.00 W/m2
19:40 37.6 °F 23.3 °F 29.86 in SE 3.0 mph 9.0 mph 56% 0.00 in 195.00 W/m2
19:45 37.4 °F 23.1 °F 29.87 in SSE 2.0 mph 9.0 mph 56% 0.00 in 176.00 W/m2
19:50 37.5 °F 23.2 °F 29.87 in Calm   9.0 mph 56% 0.00 in 160.00 W/m2
19:55 37.6 °F 23.3 °F 29.87 in SSE 3.0 mph 9.0 mph 56% 0.00 in 142.00 W/m2
20:00 37.1 °F 22.8 °F 29.87 in SE 4.0 mph 7.0 mph 56% 0.00 in 114.00 W/m2
20:05 36.7 °F 22.9 °F 29.87 in SE 3.0 mph 8.0 mph 57% 0.00 in 105.00 W/m2
20:10 36.5 °F 23.1 °F 29.87 in South 6.0 mph 8.0 mph 58% 0.00 in 97.00 W/m2
20:15 36.5 °F 23.1 °F 29.87 in SSE 3.0 mph 8.0 mph 58% 0.00 in 81.00 W/m2
20:20 36.2 °F 22.8 °F 29.87 in SSE 3.0 mph 7.0 mph 58% 0.00 in 65.00 W/m2
20:25 36.1 °F 22.7 °F 29.87 in SE 2.0 mph 6.0 mph 58% 0.00 in 51.00 W/m2
20:30 35.9 °F 23.0 °F 29.87 in SSE 2.0 mph 5.0 mph 59% 0.00 in 39.00 W/m2
20:35 35.6 °F 22.7 °F 29.87 in SE 5.0 mph 5.0 mph 59% 0.00 in 30.00 W/m2
20:40 35.2 °F 22.7 °F 29.87 in SE 5.0 mph 7.0 mph 60% 0.00 in 23.00 W/m2
20:45 34.8 °F 22.7 °F 29.87 in SE 4.0 mph 7.0 mph 61% 0.00 in 18.00 W/m2
20:50 34.2 °F 22.1 °F 29.87 in SSE 2.0 mph 6.0 mph 61% 0.00 in 14.00 W/m2
20:55 33.7 °F 22.1 °F 29.87 in SSE 4.0 mph 6.0 mph 62% 0.00 in 11.00 W/m2
21:00 33.2 °F 22.0 °F 29.87 in SSE 3.0 mph 5.0 mph 63% 0.00 in 7.00 W/m2
21:05 32.7 °F 21.5 °F 29.87 in SSE 2.0 mph 5.0 mph 63% 0.00 in 5.00 W/m2
21:10 32.2 °F 21.7 °F 29.88 in South 2.0 mph 5.0 mph 65% 0.00 in 0.00 W/m2
21:15 31.7 °F 21.3 °F 29.88 in South 6.0 mph 6.0 mph 65% 0.00 in 0.00 W/m2
21:20 31.5 °F 21.4 °F 29.88 in SSE 4.0 mph 6.0 mph 66% 0.00 in 0.00 W/m2
21:25 31.1 °F 21.4 °F 29.88 in SSE 3.0 mph 5.0 mph 67% 0.00 in 0.00 W/m2
21:30 30.7 °F 21.0 °F 29.88 in SSE 4.0 mph 6.0 mph 67% 0.00 in 0.00 W/m2
21:35 30.2 °F 20.9 °F 29.88 in SSE 4.0 mph 6.0 mph 68% 0.00 in 0.00 W/m2
21:40 29.7 °F 21.1 °F 29.88 in South 4.0 mph 6.0 mph 70% 0.00 in 0.00 W/m2
21:45 29.4 °F 21.2 °F 29.88 in SSE 6.0 mph 7.0 mph 71% 0.00 in 0.00 W/m2
21:50 29.2 °F 21.3 °F 29.89 in SSE 4.0 mph 7.0 mph 72% 0.00 in 0.00 W/m2
21:55 29.0 °F 21.1 °F 29.88 in SSE 2.0 mph 7.0 mph 72% 0.00 in 0.00 W/m2
22:00 29.0 °F 21.1 °F 29.89 in SSE 3.0 mph 7.0 mph 72% 0.00 in 0.00 W/m2
22:05 28.9 °F 21.3 °F 29.89 in SE 3.0 mph 5.0 mph 73% 0.00 in 0.00 W/m2
22:10 28.9 °F 21.3 °F 29.89 in SE 2.0 mph 4.0 mph 73% 0.00 in 0.00 W/m2
22:15 28.9 °F 21.3 °F 29.89 in SE 3.0 mph 4.0 mph 73% 0.00 in 0.00 W/m2
22:20 28.8 °F 21.2 °F 29.89 in SSE 3.0 mph 5.0 mph 73% 0.00 in 0.00 W/m2
22:25 28.7 °F 21.1 °F 29.89 in SSE 3.0 mph 5.0 mph 73% 0.00 in 0.00 W/m2
22:30 28.7 °F 21.1 °F 29.89 in SSE 3.0 mph 5.0 mph 73% 0.00 in 0.00 W/m2
22:35 28.7 °F 21.1 °F 29.89 in SE 2.0 mph 5.0 mph 73% 0.00 in 0.00 W/m2
22:40 28.6 °F 21.4 °F 29.89 in SE 2.0 mph 4.0 mph 74% 0.00 in 0.00 W/m2
22:45 28.7 °F 21.5 °F 29.89 in SE 3.0 mph 4.0 mph 74% 0.00 in 0.00 W/m2
22:50 28.7 °F 21.1 °F 29.89 in SE 3.0 mph 4.0 mph 73% 0.00 in 0.00 W/m2
22:55 28.7 °F 21.1 °F 29.89 in SE 1.0 mph 4.0 mph 73% 0.00 in 0.00 W/m2
23:00 28.7 °F 21.1 °F 29.89 in SE 3.0 mph 3.0 mph 73% 0.00 in 0.00 W/m2
23:05 28.6 °F 21.4 °F 29.89 in SE 3.0 mph 4.0 mph 74% 0.00 in 0.00 W/m2
23:10 28.4 °F 21.2 °F 29.89 in SE 3.0 mph 4.0 mph 74% 0.00 in 0.00 W/m2
23:15 28.2 °F 21.0 °F 29.89 in SE 3.0 mph 4.0 mph 74% 0.00 in 0.00 W/m2
23:20 28.0 °F 20.8 °F 29.88 in ESE 2.0 mph 4.0 mph 74% 0.00 in 0.00 W/m2
23:25 27.8 °F 20.9 °F 29.89 in ESE 3.0 mph 4.0 mph 75% 0.00 in 0.00 W/m2
23:30 27.6 °F 20.7 °F 29.89 in ESE 3.0 mph 4.0 mph 75% 0.00 in 0.00 W/m2
23:35 27.4 °F 20.5 °F 29.89 in ESE 4.0 mph 4.0 mph 75% 0.00 in 0.00 W/m2
23:40 27.3 °F 20.7 °F 29.89 in ESE 4.0 mph 4.0 mph 76% 0.00 in 0.00 W/m2
23:45 27.1 °F 20.8 °F 29.89 in SE 3.0 mph 4.0 mph 77% 0.00 in 0.00 W/m2
23:50 26.9 °F 20.7 °F 29.90 in SE 4.0 mph 5.0 mph 77% 0.00 in 0.00 W/m2
23:55 26.8 °F 20.6 °F 29.90 in SE 4.0 mph 5.0 mph 77% 0.00 in 0.00 W/m2
Bismarck, North Dakota, USA
Compliments of Weather Underground - 4 mb